Location: Dugenta
(41.1333°N, 14.4500°E)
Time: 13:06:50
(UTC+00:00)

ASTEX 1 - Pass Details

Date: 03 March 2021
Orbit: 720 x 743 km, 92.7° (Epoch: 14 April)

Event Time Altitude Azimuth Distance (km) Brightness Sun altitude
Rises 19:21:51 0° 0° (N) 3,145 6.9 -28.1°
Reaches altitude 10° 19:24:11 10° 356° (N) 2,218 6.1 -28.5°
Maximum altitude 19:28:56 53° 281° (W) 882 4.0 -29.3°
Enters shadow 19:30:15 41° 232° (SW) 1,047 4.3 -29.6°
